[[{"header":{"parameterUnit":"m.s-1","parameterCategory":1,"la1":30.2991,"la2":30.254,"lo1":-89.0895,"lo2":-89.0444,"dy":0.0017,"dx":0.0017,"nx":28,"ny":28,"refTime":"2023-09-28T21:00:00:Z","depth":0,"parameterNumber":2,"parameterNumberName":"U-component_of_WINDS"},"data":[0,0,0,0,0,0,0,0,0,0,0,0,0,0,0,0,0,0,0,0,0,0,0,0,0,0,0,0,0,0,0,0,0,0,0,0,0,0,0,0,0,0,0,0,0,0,0,0,0,0,0,0,0,0,0,0,0,0,-5.7793,-5.7793,0,-5.7791,-5.7791,-5.7791,-5.7623,-5.7619,-5.7614,-5.761,-5.7607,-5.7611,-5.7615,0,0,0,0,0,0,0,0,0,0,0,0,0,-5.7651,-5.7654,-5.7793,-5.7793,-5.7793,-5.7791,-5.7791,-5.7791,-5.7624,-5.7619,-5.7613,-5.7608,-5.7606,-5.7611,-5.7615,0,0,0,0,0,0,0,0,0,0,0,0,0,-5.7687,-5.7656,-5.7793,-5.771,-5.7702,-5.7791,-5.7791,-5.7791,-5.7625,-5.7618,-5.7612,-5.7606,-5.7604,-5.761,-5.7616,-5.7785,0,0,-5.7635,-5.7637,0,0,0,0,0,0,0,0,-5.7685,-5.7693,-5.7722,-5.7715,-5.7707,-5.7701,-5.774,-5.7789,-5.7627,-5.7654,-5.761,-5.7602,-5.7644,-5.7646,-5.766,-5.7785,-5.7785,-5.7635,-5.7639,-5.7641,-5.7643,0,0,0,0,0,0,0,-5.7683,-5.7692,-5.7792,-5.7722,-5.7714,-5.7672,-5.7669,-5.7748,-5.7686,-5.7651,-5.7639,-5.7641,-5.7638,-5.7655,-5.7659,-5.7785,-5.7635,-5.764,-5.7644,-5.7646,-5.8047,-5.8053,0,0,0,0,0,0,-5.7692,-5.7691,-5.7792,-5.7792,-5.768,-5.768,-5.7677,-5.7709,-5.7684,-5.7674,-5.7647,-5.7633,-5.7648,-5.7652,-5.7658,-5.7853,-5.7641,-5.7647,-5.765,-5.804,-5.8048,-5.8056,0,0,0,0,0,0,-5.769,-5.7703,-5.7792,-5.7738,-5.7746,-5.7689,-5.7727,-5.7713,-5.7729,-5.7681,-5.7669,-5.7675,-5.7643,-5.7649,-5.7754,-5.785,-5.765,-5.7655,-5.8032,-5.8042,-5.8052,-5.8245,0,0,0,0,0,0,-5.7687,-5.7703,-5.7767,-5.7741,-5.775,-5.789,-5.7732,-5.7718,-5.774,-5.7722,-5.7704,-5.7695,-5.7638,-5.7746,-5.776,-5.7855,-5.766,-5.8023,-5.8036,-5.8049,-5.823,-5.8261,-5.8287,0,0,0,0,0,-5.7682,-5.7821,-5.7771,-5.7784,-5.7829,-5.7896,-5.7901,-5.7832,-5.7748,-5.7811,-5.7781,-5.7696,-5.7838,-5.7759,-5.7773,-5.7871,-5.8016,-5.8032,-5.8048,-5.8217,-5.8255,-5.8287,0,0,0,0,0,0,-5.7859,-5.7816,-5.776,-5.7895,-5.7901,-5.7867,-5.7945,-5.7875,-5.7904,-5.7886,-5.78,-5.7797,-5.7916,-5.7904,-5.7816,-5.8032,-5.7912,-5.7932,-5.8036,-5.8071,-5.8099,-5.8099,-5.7665,0,0,0,0,0,-5.7915,-5.7973,-5.7932,-5.8055,-5.8061,-5.8003,-5.803,-5.7977,-5.7978,-5.798,-5.7956,-5.7961,-5.8007,-5.8038,-5.8078,-5.8228,-5.8221,-5.8302,-5.8331,-5.8355,-5.8372,-5.8449,-5.8485,-5.8108,-5.8108,-5.8107,0,0,-5.8028,-5.8012,-5.8054,-5.809,-5.8088,-5.815,-5.8006,-5.8078,-5.8122,-5.799,-5.8087,-5.8072,-5.8071,-5.8199,-5.8254,-5.8193,-5.8475,-5.8375,-5.8394,-5.8399,-5.8469,-5.8505,-5.8537,-5.8119,-5.8117,-5.8115,0,0,-5.8267,-5.8262,-5.8363,-5.8364,-5.8362,-5.8323,-5.8348,-5.8326,-5.831,-5.8406,-5.8308,-5.836,-5.8441,-5.8444,-5.8457,-5.8698,-5.862,-5.8713,-5.8863,-5.894,-5.8969,-5.8995,-5.908,-5.9111,-5.8731,-5.8732,-5.8732,0,-5.8408,-5.8498,-5.8424,-5.8502,-5.852,-5.8404,-5.8506,-5.851,-5.8522,-5.8538,-5.8469,-5.8567,-5.8559,-5.8685,-5.8744,-5.8759,-5.8784,-5.8714,-5.8971,-5.8996,-5.9019,-5.9099,-5.9131,-5.8743,-5.8742,-5.874,-5.8739,0,-5.8671,-5.8735,-5.8817,-5.8832,-5.8859,-5.8949,-5.8888,-5.8925,-5.887,-5.8839,-5.8938,-5.8924,-5.8958,-5.8985,-5.8932,-5.9105,-5.9066,-5.8986,-5.8863,-5.9068,-5.9141,-5.9171,-5.8759,-5.8755,-5.8751,-5.8749,0,0,-5.902,-5.8993,-5.9024,-5.9029,-5.9019,-5.9067,-5.9152,-5.9185,-5.9218,-5.9231,-5.9299,-5.937,-5.9296,-5.931,-5.9257,-5.9324,-5.9515,-5.9235,-5.9234,-5.9286,-5.9703,-5.9762,-5.9798,-5.9464,-5.947,-5.9474,-5.9702,0,-5.925,-5.9392,-5.9328,-5.9477,-5.9534,-5.9426,-5.9499,-5.9501,-5.9474,-5.9519,-5.9488,-5.954,-5.9438,-5.9446,-5.9508,-5.9479,-5.9597,-5.9461,-5.9525,-5.9528,-5.9527,-5.9837,-5.9899,-6.0115,-5.973,-5.9735,-5.9739,0,-5.9536,-5.9561,-5.9716,-5.9696,-5.9717,-5.9785,-5.981,-5.9854,-5.9854,-5.983,-5.9847,-5.9778,-5.9859,-5.9739,-5.9848,-5.9758,-5.978,-5.977,-5.9777,-5.9778,-5.9645,-5.9845,-6.0182,-6.0215,-5.9783,-5.978,-5.9777,0,-5.9773,-5.9845,-5.9947,-5.9955,-5.9934,-5.9984,-5.9977,-5.9971,-5.9995,-6.0018,-6.0033,-6.0065,-6.0082,-6.0109,-6.005,-5.9968,-6.0168,-6.0043,-6.0149,-6.0151,-6.0194,-6.0192,-6.0538,-6.0213,-6.0212,-6.0212,-6.0211,0,-6.0035,-6.0134,-6.0053,-6.0115,-6.0222,-6.0148,-6.0256,-6.0238,-6.0234,-6.029,-6.0199,-6.0254,-6.0175,-6.0222,-6.0177,-6.0274,-6.0283,-6.0265,-6.0252,-6.0272,-6.0275,-6.0284,-6.0267,-6.022,-6.0218,-6.0217,-6.0215,0,-6.0316,-6.0266,-6.037,-6.0342,-6.0338,-6.0418,-6.0394,-6.045,-6.0418,-6.0491,-6.0503,-6.0452,-6.0503,-6.0448,-6.0495,-6.0465,-6.0595,-6.0561,-6.0595,-6.0585,-6.0693,-6.0683,-6.1056,-6.1101,-6.0749,-6.0753,-6.0756,0,-6.0486,-6.0559,-6.054,-6.0571,-6.0571,-6.0623,-6.0647,-6.0577,-6.0607,-6.0613,-6.0668,-6.0712,-6.0742,-6.0829,-6.0796,-6.0831,-6.0796,-6.0924,-6.08,-6.0819,-6.0796,-6.0791,-6.0798,-6.0949,-6.0953,-6.0956,-6.0959,0,-6.0791,-6.0763,-6.0802,-6.0833,-6.0865,-6.0886,-6.0899,-6.0931,-6.0858,-6.0895,-6.0947,-6.0971,-6.1019,-6.1063,-6.1089,-6.1082,-6.1009,-6.0999,-6.1025,-6.1046,-6.1062,-6.1053,-6.0662,-6.099,-6.0987,-6.0985,-6.0983,-6.0982,-6.102,-6.108,-6.1076,-6.1122,-6.1126,-6.1141,-6.1192,-6.1166,-6.1208,-6.1241,-6.1198,-6.1261,-6.1259,-6.1287,-6.1288,-6.1336,-6.1282,-6.132,-6.1329,-6.1339,-6.1355,-6.1057,-6.1341,-6.134,-6.1339,-6.1339,-6.1338,0,-6.1319,-6.1311,-6.1355,-6.1377,-6.1414,-6.1343,-6.1355,-6.139,-6.1447,-6.1452,-6.1484,-6.1543,-6.1585,-6.1556,-6.1592,-6.1636,-6.1604,-6.1648,-6.1643,-6.1642,-6.1402,-6.1375,-6.1673,-6.1673,-6.1673,-6.1673,-6.1673,-6.1673,-6.1479,-6.1576,-6.1548,-6.1646,-6.1637,-6.1698,-6.1711,-6.1724,-6.1727,-6.1797,-6.1832,-6.1813,-6.1804,-6.1839,-6.1874,-6.1864,-6.1881,-6.1937,-6.1916,-6.1692,-6.1659,-6.1627,-6.1601,-6.1942,-6.1942,-6.2151,-6.2153,-6.2154]},{"header":{"parameterUnit":"m.s-1","parameterCategory":1,"la1":30.2991,"la2":30.254,"lo1":-89.0895,"lo2":-89.0444,"dy":0.0017,"dx":0.0017,"nx":28,"ny":28,"refTime":"2023-09-28T21:00:00:Z","depth":0,"parameterNumber":3,"parameterNumberName":"V-component_of_WINDS"},"data":[0,0,0,0,0,0,0,0,0,0,0,0,0,0,0,0,0,0,0,0,0,0,0,0,0,0,0,0,0,0,0,0,0,0,0,0,0,0,0,0,0,0,0,0,0,0,0,0,0,0,0,0,0,0,0,0,0,0,-2.2592,-2.2593,0,-2.2682,-2.2683,-2.2684,-2.2688,-2.2687,-2.2686,-2.2685,-2.2775,-2.2779,-2.2782,0,0,0,0,0,0,0,0,0,0,0,0,0,-2.2421,-2.2424,-2.2592,-2.2593,-2.2595,-2.2682,-2.2683,-2.2685,-2.2688,-2.2687,-2.2686,-2.2684,-2.2774,-2.2778,-2.2782,0,0,0,0,0,0,0,0,0,0,0,0,0,-2.2501,-2.2425,-2.2592,-2.2607,-2.2609,-2.2682,-2.2683,-2.2685,-2.2688,-2.2687,-2.2685,-2.2684,-2.2773,-2.2778,-2.2783,-2.2846,0,0,-2.2798,-2.2801,0,0,0,0,0,0,0,0,-2.2497,-2.2508,-2.2604,-2.2606,-2.2609,-2.2672,-2.2656,-2.2739,-2.2689,-2.2658,-2.2685,-2.2683,-2.2742,-2.275,-2.277,-2.285,-2.2854,-2.2799,-2.2802,-2.2804,-2.2806,0,0,0,0,0,0,0,-2.2491,-2.2504,-2.2628,-2.2605,-2.2608,-2.2608,-2.2618,-2.2672,-2.2708,-2.2661,-2.2661,-2.2672,-2.2743,-2.2765,-2.2772,-2.2856,-2.2799,-2.2803,-2.2806,-2.2808,-2.2991,-2.2992,0,0,0,0,0,0,-2.2483,-2.2499,-2.2625,-2.2631,-2.2548,-2.2613,-2.2623,-2.2653,-2.2708,-2.2714,-2.2673,-2.2672,-2.2757,-2.2766,-2.2775,-2.2852,-2.2804,-2.2809,-2.2812,-2.2989,-2.2991,-2.2993,0,0,0,0,0,0,-2.2479,-2.2494,-2.2621,-2.2565,-2.2581,-2.2617,-2.2651,-2.2656,-2.2678,-2.2717,-2.2723,-2.2689,-2.2756,-2.2768,-2.2828,-2.2855,-2.2811,-2.2816,-2.2987,-2.299,-2.2992,-2.3007,0,0,0,0,0,0,-2.2475,-2.2493,-2.2518,-2.2566,-2.2584,-2.2674,-2.2653,-2.2659,-2.2687,-2.2686,-2.2733,-2.274,-2.2756,-2.2821,-2.2833,-2.2862,-2.282,-2.2985,-2.2988,-2.2991,-2.3004,-2.301,-2.3014,0,0,0,0,0,-2.2468,-2.2519,-2.252,-2.2535,-2.2617,-2.2675,-2.2686,-2.2704,-2.2689,-2.2714,-2.2739,-2.2738,-2.285,-2.2827,-2.2841,-2.2871,-2.2983,-2.2987,-2.2991,-2.3002,-2.3009,-2.3014,0,0,0,0,0,0,-2.2474,-2.2525,-2.2527,-2.2594,-2.263,-2.2676,-2.2708,-2.2711,-2.2752,-2.2749,-2.2769,-2.278,-2.2839,-2.2861,-2.2834,-2.2935,-2.2915,-2.2922,-2.2918,-2.2925,-2.293,-2.2923,-2.2824,0,0,0,0,0,-2.2483,-2.2527,-2.2569,-2.2625,-2.2643,-2.2672,-2.2699,-2.2709,-2.2747,-2.2762,-2.2792,-2.2828,-2.2871,-2.2899,-2.2941,-2.3007,-2.3017,-2.3035,-2.304,-2.3044,-2.305,-2.3085,-2.3093,-2.3006,-2.3006,-2.3006,0,0,-2.2502,-2.2536,-2.2562,-2.2627,-2.2656,-2.27,-2.2685,-2.2733,-2.2765,-2.2769,-2.2828,-2.285,-2.2892,-2.2955,-2.2984,-2.2975,-2.3076,-2.3049,-2.3052,-2.3056,-2.309,-2.3098,-2.3105,-2.3009,-2.3008,-2.3008,0,0,-2.2559,-2.259,-2.2638,-2.2668,-2.2712,-2.2731,-2.2743,-2.2788,-2.2803,-2.2862,-2.2865,-2.2904,-2.2978,-2.3007,-2.3032,-2.3098,-2.3099,-2.3111,-2.3138,-2.3172,-2.3179,-2.3185,-2.3208,-2.3216,-2.3117,-2.3117,-2.3117,0,-2.2577,-2.2645,-2.2663,-2.2711,-2.2738,-2.2744,-2.2792,-2.282,-2.2875,-2.2894,-2.2883,-2.2976,-2.3004,-2.3073,-2.3089,-2.3109,-2.3122,-2.3106,-2.3177,-2.3183,-2.3189,-2.3211,-2.322,-2.3118,-2.3118,-2.3118,-2.3118,0,-2.2664,-2.271,-2.2744,-2.2798,-2.2829,-2.2877,-2.2902,-2.2931,-2.2938,-2.2958,-2.3017,-2.3051,-2.31,-2.3117,-2.3125,-2.3187,-2.318,-2.3173,-2.3153,-2.3198,-2.3219,-2.3228,-2.312,-2.312,-2.3119,-2.3119,0,0,-2.2728,-2.279,-2.2802,-2.2826,-2.2875,-2.291,-2.2958,-2.3005,-2.3029,-2.3067,-2.3107,-2.3169,-2.3162,-2.319,-2.3201,-2.3231,-2.3279,-2.322,-2.3221,-2.3229,-2.3348,-2.3353,-2.3363,-2.328,-2.3282,-2.3283,-2.3345,0,-2.279,-2.2875,-2.2892,-2.2966,-2.3008,-2.3013,-2.3054,-2.3087,-2.3107,-2.3145,-2.3166,-2.3209,-2.3198,-2.3214,-2.3244,-2.3267,-2.3304,-2.3263,-2.3316,-2.3318,-2.3305,-2.3374,-2.3379,-2.3436,-2.3353,-2.3355,-2.3356,0,-2.2874,-2.2914,-2.2991,-2.3033,-2.3051,-2.3088,-2.3132,-2.3169,-2.3206,-2.3218,-2.3248,-2.3256,-2.3303,-2.3282,-2.3347,-2.3319,-2.3342,-2.3356,-2.3359,-2.3364,-2.3339,-2.3381,-2.3455,-2.3463,-2.3369,-2.3368,-2.3367,0,-2.2912,-2.2985,-2.304,-2.306,-2.3111,-2.3136,-2.3158,-2.3194,-2.3221,-2.3259,-2.3276,-2.332,-2.3343,-2.3376,-2.3394,-2.3377,-2.3458,-2.3438,-2.3468,-2.3468,-2.3485,-2.3484,-2.3564,-2.3501,-2.35,-2.35,-2.35,0,-2.2979,-2.3026,-2.3058,-2.3092,-2.3144,-2.3162,-2.3213,-2.3235,-2.3267,-2.3304,-2.3311,-2.3346,-2.3368,-2.3405,-2.342,-2.3471,-2.3482,-2.3492,-2.3495,-2.3492,-2.349,-2.3507,-2.3503,-2.3502,-2.3502,-2.3502,-2.3501,0,-2.3031,-2.3054,-2.3114,-2.3156,-2.3168,-2.3205,-2.324,-2.3273,-2.3291,-2.3339,-2.3351,-2.338,-2.3425,-2.3446,-2.3501,-2.3511,-2.3569,-2.357,-2.3557,-2.3558,-2.3587,-2.3583,-2.368,-2.3693,-2.3621,-2.3622,-2.3622,0,-2.3072,-2.3108,-2.3154,-2.318,-2.3202,-2.3244,-2.3271,-2.329,-2.3318,-2.3363,-2.3389,-2.3434,-2.3471,-2.3542,-2.3568,-2.3609,-2.3611,-2.3642,-2.3617,-2.3612,-2.3611,-2.3608,-2.3611,-2.3646,-2.3647,-2.3647,-2.3648,0,-2.3143,-2.3152,-2.3191,-2.3235,-2.3267,-2.3302,-2.3336,-2.3356,-2.3381,-2.3412,-2.3457,-2.3486,-2.3542,-2.3586,-2.3629,-2.3651,-2.3653,-2.3655,-2.3664,-2.3661,-2.3651,-2.3656,-2.3568,-2.3653,-2.3652,-2.3652,-2.3652,-2.3652,-2.319,-2.3222,-2.3259,-2.3302,-2.3329,-2.3361,-2.3393,-2.3416,-2.3454,-2.3502,-2.351,-2.3558,-2.3593,-2.3652,-2.3675,-2.3712,-2.3705,-2.3718,-2.3722,-2.3725,-2.3726,-2.3645,-2.372,-2.372,-2.372,-2.372,-2.372,0,-2.326,-2.3284,-2.3323,-2.3371,-2.3405,-2.3404,-2.3441,-2.3469,-2.3512,-2.3544,-2.358,-2.3632,-2.3674,-2.3703,-2.3745,-2.377,-2.3772,-2.378,-2.3778,-2.3783,-2.373,-2.3718,-2.3778,-2.3778,-2.3778,-2.3778,-2.3778,-2.3778,-2.33,-2.3354,-2.3367,-2.3434,-2.3457,-2.3505,-2.3526,-2.3554,-2.3581,-2.3638,-2.3673,-2.3692,-2.3722,-2.3767,-2.3805,-2.3813,-2.3828,-2.3836,-2.3843,-2.3793,-2.3787,-2.3781,-2.377,-2.384,-2.384,-2.3893,-2.3893,-2.3894]}]]